Weather in Kagoshima

Japan     31°32′03″N   130°30′23″E
temp.,
°C
wind,
m/s
gust,
m/s
humid.,
%
clouds,
%
prec.,
mm/h
press.,
hPa
HPBL,
m
28 november, sun
sun2800:00+9nne22710 0.0 1032228
03:00+9ne46690 0.0 1032387
06:00+9ene46640 0.0 1032431
09:00+11ene455910 0.0 1033623
12:00+14e23505 0.0 1032940
15:00+14ene12490 0.0 1030827
18:00+12ese33650 0.0 1031409
21:00+11e22710 0.0 1031276
29 november, mon
mon2900:00+10ene22745 0.0 1031261
03:00+9nne22794 0.0 1030182
06:00+8nne33815 0.0 1029181
09:00+12ne23685 0.0 1030356
12:00+15ene23577 0.0 1028623
15:00+16e12550 0.0 1026555
18:00+13ese126566 0.0 1027219
21:00+13ese237616 0.0 1027221
30 november, tue
tue3000:00+12ene23820 0.0 1025187
03:00+12nne338551 0.0 1023156
06:00+13ene24812 0.0 1022224
09:00+16ese612775 0.0 1019832
12:00+20sse8126894 0.3 10151475
15:00+18sse61178100 1.2 1011975
18:00+14nw111792100 23.4 1012986
21:00+14nw4109194 29.6 1013892
1 december, wed
wed100:00+12nw10147897 0.4 10151269
03:00+10nw91574100 0.4 10161672
06:00+10nw9157196 0.1 10171787
09:00+9nw8156998 0.2 10191812
12:00+11nw8145770 0.0 10191851
15:00+10nw8146197 0.0 10191805
18:00+9nnw7136395 0.0 10201564
21:00+10nnw5116278 0.0 10211386
2 december, thu
thu200:00+8nnw38685 0.0 1021513
03:00+6nnw37761 0.0 1021420
06:00+6n257692 0.0 1021325
09:00+9n3767100 0.0 1022503
12:00+11nnw475796 0.0 10211560
15:00+11nnw466491 0.0 10201074
18:00+10n237361 0.0 1021306
21:00+9n127289 0.0 1022203